Tracking 22879 objects as of 22-Apr-2021
HD Live streaming from Space Station
objects crossing your sky now

CZ-11 DEB

Track CZ-11 DEB now!
10-day predictions


NORAD ID: 45613
Int'l Code: 2020-032C
Perigee: 458.8 km
Apogee: 476.3 km
Inclination: 35.0 °
Period: 93.8 minutes
Semi major axis: 6838 km
RCS: Unknown
Launch date: May 29, 2020
Source: People's Republic of China (PRC)
Launch site: Xichang Space Center, China (XSC)

Note: This is SATELLITE DEBRIS
aabbcc
Your satellite tracking list
Your tracking list is empty




NASA's NSSDC Master Catalog

Two Line Element Set (TLE):
1 45613U 20032C   21112.06261482  .00014973  00000-0  42634-3 0  9998
2 45613  35.0290 243.2420 0012778  42.6630 317.5079 15.35169452 50124
Source of the keplerian elements: AFSPC